Location: Newark
(13.8117°N, 3.6025°W)
Time: 00:42:11
(UTC+00:00)

Vanguard 3 - All Passes

Search period start: 24 August 2019 00:00
Search period end: 03 September 2019 00:00
Orbit: 508 x 3263 km, 33.3° (Epoch: 23 August)

Date Brightness Start Highest point End Pass type
(mag) Time Alt. Az. Time Alt. Az. Time Alt. Az.
24 Aug - 00:06:49 10° WNW 00:10:51 55° SSW 00:16:59 10° SE night (unlit)
24 Aug - 02:21:42 10° SW 02:24:13 12° SSW 02:27:11 10° S night (unlit)
24 Aug - 09:25:35 10° SSE 09:28:44 10° SSE 09:31:48 10° SE daylight
24 Aug - 11:32:08 10° SSW 11:47:56 33° SSE 11:59:17 10° E daylight
24 Aug - 13:47:26 10° SW 14:04:00 79° SSE 14:13:16 10° ENE daylight
24 Aug - 16:07:09 10° W 16:17:31 36° NNW 16:23:45 10° NE daylight
24 Aug - 22:53:38 10° NW 22:57:16 56° NNE 23:01:58 10° ESE night (unlit)
25 Aug - 01:05:46 10° WSW 01:09:20 19° SSW 01:14:12 10° SSE night (unlit)
25 Aug - 10:17:13 10° SSW 10:30:35 22° SSE 10:41:48 10° ESE daylight
25 Aug - 12:30:15 10° SW 12:48:02 55° SSE 12:59:08 10° ENE daylight
25 Aug - 14:48:11 10° WSW 15:02:47 61° NNW 15:10:54 10° NE daylight
25 Aug - 17:10:09 10° WNW 17:16:10 19° NNW 17:20:30 10° NNE daylight
25 Aug - 21:40:48 10° NNW 21:43:41 21° NNE 21:46:39 10° ENE visible
25 Aug - 23:51:28 10° W 23:55:08 37° SSW 00:00:15 10° SE night (unlit)
26 Aug - 09:04:43 10° S 09:12:34 13° SSE 09:20:05 10° SE daylight
26 Aug - 11:14:00 10° SSW 11:31:19 39° SSE 11:43:51 10° E daylight
26 Aug - 13:29:51 10° SW 13:47:27 90° SSE 13:57:30 10° ENE daylight
26 Aug - 15:50:28 10° W 16:01:24 34° NNW 16:08:04 10° NE daylight
26 Aug - 18:13:43 10° NNW 18:15:21 11° NNW 18:16:50 10° N daylight
26 Aug - 20:28:23 10° N 20:29:31 11° NNE 20:30:36 10° NNE visible
26 Aug - 22:37:53 10° NW 22:41:32 82° NNE 22:45:56 10° ESE night (unlit)
27 Aug - 00:51:40 10° SW 00:53:42 12° SSW 00:56:03 10° S night (unlit)
27 Aug - 09:58:57 10° SSW 10:13:59 26° SSE 10:26:44 10° E daylight
27 Aug - 12:12:26 10° SW 12:31:19 64° SE 12:43:22 10° ENE daylight
27 Aug - 14:31:02 10° WSW 14:46:21 55° NNW 14:55:07 10° NE daylight
27 Aug - 16:53:46 10° WNW 17:00:21 19° NNW 17:05:03 10° NNE daylight
27 Aug - 21:24:38 10° NW 21:28:00 28° NNE 21:31:16 10° E visible
27 Aug - 23:36:17 10° W 23:39:27 24° SSW 23:43:26 10° SSE night (unlit)
28 Aug - 08:45:48 10° S 08:56:12 16° SSE 09:06:13 10° ESE daylight
28 Aug - 10:56:05 10° SSW 11:14:29 46° SE 11:28:11 10° ENE daylight
28 Aug - 13:12:22 10° WSW 13:30:45 82° NNW 13:41:38 10° NE daylight
28 Aug - 15:33:45 10° W 15:45:15 32° NNW 15:52:22 10° NE daylight
28 Aug - 17:56:42 10° NW 17:59:46 13° N 18:02:19 10° NNE daylight
28 Aug - 20:11:17 10° NNW 20:13:56 15° NNE 20:16:15 10° NE visible
28 Aug - 22:22:11 10° WNW 22:25:49 66° SSW 22:29:52 10° SE night (unlit)
29 Aug - 09:40:58 10° SSW 09:57:11 31° SE 10:11:18 10° E daylight
29 Aug - 11:54:45 10° SW 12:14:25 73° SE 12:27:29 10° ENE daylight
29 Aug - 14:13:56 10° WSW 14:29:52 51° NNW 14:39:17 10° NE daylight
29 Aug - 16:37:15 10° WNW 16:44:32 20° NNW 16:49:40 10° NNE daylight
29 Aug - 18:56:49 10° NNW 18:59:16 13° N 19:01:22 10° NNE visible
29 Aug - 21:08:27 10° NW 21:12:20 40° NNE 21:15:49 10° E visible
29 Aug - 23:21:25 10° WSW 23:23:45 15° SSW 23:26:23 10° S night (unlit)
30 Aug - 08:27:32 10° S 08:39:36 19° SE 08:51:31 10° ESE daylight
30 Aug - 10:38:21 10° SW 10:57:29 52° SE 11:12:17 10° ENE daylight
30 Aug - 12:54:59 10° WSW 13:13:57 74° NNW 13:25:42 10° NE daylight
30 Aug - 15:17:02 10° W 15:29:07 31° NNW 15:36:43 10° NE daylight
30 Aug - 17:39:46 10° NW 17:44:11 15° N 17:47:36 10° NNE daylight
30 Aug - 19:54:33 10° NNW 19:58:22 21° NNE 20:01:24 10° ENE visible
30 Aug - 22:06:31 10° WNW 22:10:07 41° SW 22:13:45 10° SE night (unlit)
31 Aug - 09:23:14 10° SSW 09:40:12 36° SE 09:55:34 10° E daylight
31 Aug - 11:37:14 10° SW 11:57:23 81° SE 12:11:26 10° ENE daylight
31 Aug - 13:56:54 10° W 14:13:20 47° NNW 14:23:25 10° NE daylight
31 Aug - 16:20:36 10° WNW 16:28:45 21° NNW 16:34:21 10° NNE daylight
31 Aug - 18:39:39 10° NNW 18:43:44 16° N 18:46:54 10° NE visible
31 Aug - 20:52:17 10° NW 20:56:41 61° NNE 21:00:17 10° ESE visible
01 Sep - 08:09:40 10° S 08:22:49 23° SE 08:36:16 10° E daylight
01 Sep - 10:20:49 10° SW 10:40:19 60° SE 10:56:12 10° ENE daylight
01 Sep - 12:37:43 10° WSW 12:57:04 68° NNW 13:09:40 10° NE daylight
01 Sep - 15:00:16 10° WNW 15:12:58 31° NNW 15:21:04 10° NE daylight
01 Sep - 17:22:47 10° NW 17:28:35 18° N 17:32:49 10° NE daylight
01 Sep - 19:37:52 10° NW 19:42:46 29° NNE 19:46:21 10° E visible
01 Sep - 21:50:56 10° W 21:54:20 28° SW 21:57:33 10° SSE visible
02 Sep - 06:59:54 10° SSE 07:05:21 12° SE 07:11:04 10° SE daylight
02 Sep - 09:05:43 10° SSW 09:23:03 41° SE 09:39:33 10° ENE daylight
02 Sep - 11:19:53 10° SW 11:40:15 89° SE 11:55:15 10° ENE daylight
02 Sep - 13:39:56 10° W 13:56:47 45° NNW 14:07:31 10° NE daylight
02 Sep - 16:03:49 10° WNW 16:12:56 23° NNW 16:19:07 10° NE daylight
02 Sep - 18:22:36 10° NW 18:28:11 22° N 18:32:08 10° ENE daylight
02 Sep - 20:36:04 10° WNW 20:40:59 90° WSW 20:44:40 10° ESE visible
